カタログに戻る

STARLINK-30165

運用中通信VLEO
NORAD 57457·PAYLOAD·🇺🇸 United States

打ち上げ Jul 28, 2023 から Cape Canaveral Space Force Station

Loading…

次のパス (今後24時間)

TLE

最新Source: CelesTrak SupGP

元期: Sep 15, 2026, 02:42 UTC

1 57457C 23107A   26258.11298611  .00021005  00000+0  76099-3 0  2582
2 57457  43.0039 346.5413 0001870 260.2073 136.4714 15.27559560    13

AllMySatでSTARLINK-30165をリアルタイム追跡

Download on the App Store